Location: Chippewa Lake
(41.0698°N, 81.9010°W)
Time: 10:40:06
(UTC+00:00)

ISS - Visible Passes

Search period start: 31 March 2023 00:00
Search period end: 10 April 2023 00:00
Orbit: 414 x 424 km, 51.6° (Epoch: 31 March)

Date Brightness Start Highest point End Pass type
(mag) Time Alt. Az. Time Alt. Az. Time Alt. Az.
31 Mar -3.8 01:33:34 10° NW 01:36:49 77° N 01:36:49 77° N visible
01 Apr -3.3 00:46:01 10° NW 00:49:17 47° NNE 00:51:18 20° E visible
01 Apr -0.9 02:23:20 10° W 02:24:17 15° W 02:24:17 15° W visible
02 Apr -2.6 01:35:36 10° WNW 01:38:39 34° SW 01:39:04 33° SSW visible
03 Apr -3.4 00:48:19 10° WNW 00:51:37 60° SW 00:54:10 16° SE visible
04 Apr -1.0 01:39:58 10° WSW 01:41:09 11° SW 01:42:20 10° SSW visible
05 Apr -1.4 00:52:14 10° W 00:54:42 19° SW 00:57:10 10° S visible
